User: anonymous   Login
Location: Unspecified
(42.1900°N, 71.3291°W)
Time: 10:45:40
(UTC-05:00)
Language:

Resurs 1-4 Rocket - Orbit

View from above orbital plane
View from above orbital plane
View from above satellite
View from above satellite

Ground track
Ground track

The orbit data is extracted from the following two-line orbital elements,

1 25400U 98043G   14331.49884120  .00000101  00000-0  60366-4 0  8168
2 25400 098.3563 300.5359 0010745 144.3017 215.8884 14.25276924852204
Epoch (UTC): 27 November 2014 11:58:19
Eccentricity: 0.0010745
inclination: 98.3563°
perigee height: 800 km
apogee height: 815 km
right ascension of ascending node: 300.5359°
argument of perigee: 144.3017°
revolutions per day: 14.25276924
mean anomaly at epoch: 215.8884°
orbit number at epoch: 85220

The dashed part of the orbit path shows where the satellite is in the earth's shadow,  

DLR